Preview of NWS' New Version of Forecast
This preview is not operational and should not be used for support decisions.

Regional Weather Roundup (RWR)

Issued by National Weather Service (NWS)

                            
000
ASUS43 KBIS 231510
RWRND 

NORTH DAKOTA REGIONAL WEATHER ROUNDUP
NATIONAL WEATHER SERVICE BISMARCK ND
900 AM CST SAT FEB 23 2019

NOTE: "FAIR" INDICATES FEW OR NO CLOUDS BELOW 12,000 FEET WITH NO
SIGNIFICANT WEATHER AND/OR OBSTRUCTIONS TO VISIBILITY.


NDZ001>003-009>011-017-231600-
NORTHWEST NORTH DAKOTA
  
CITY           SKY/WX    TMP DP  RH WIND       PRES   REMARKS
WILLISTON      SUNNY     -5 -10  79 S5        29.88S WCI -16          
MINOT          CLOUDY    -1  -6  79 SW14      29.88S HAZE    WCI -20  
MINOT AFB      CLOUDY    -8 -14  77 W3          N/A                   
$$
 
NDZ018>021-031>035-040>046-231600-
SOUTHWEST NORTH DAKOTA
  
CITY           SKY/WX    TMP DP  RH WIND       PRES   REMARKS
BISMARCK       LGT SNOW  -9 -13  83 SE7       29.92F FOG     WCI -24  
DICKINSON      SUNNY      4   0  83 W9        29.82S WCI -10          
GARRISON         N/A     -9 -14  78 N5        29.88S WCI -20          
HETTINGER ARPT SUNNY      4   1  88 W6        29.85S WCI  -7          
$$
 
NDZ004>008-012>016-024-026-027-054-231600-
NORTHEAST NORTH DAKOTA
  
CITY           SKY/WX    TMP DP  RH WIND       PRES   REMARKS
GRAND FORKS    CLOUDY    14  10  84 NW5       29.95S WCI   6          
GRND FRKS AFB  CLOUDY    13  10  84 NW5       29.94F WCI   6          
DEVILS LAKE    FOG       -4  -8  83 CALM      29.92S VSB<1/4          
$$
 
NDZ022-023-025-028>030-036>039-047>053-231600-
SOUTHEAST NORTH DAKOTA
  
CITY           SKY/WX    TMP DP  RH WIND       PRES   REMARKS
FARGO          CLOUDY    23  21  92 S8        29.94S FOG     WCI  14  
JAMESTOWN      CLOUDY     9   8  96 W8        29.91R FOG     WCI  -3  
$$